Preview of NWS' New Version of Forecast
This preview is not operational and should not be used for support decisions.

Regional Weather Roundup (RWR)

Issued by National Weather Service (NWS)

                            
000
ASUS46 KSEW 161910
RWRWA 

WASHINGTON REGIONAL WEATHER ROUNDUP
NATIONAL WEATHER SERVICE SEATTLE WA
1200 PM PDT MON SEP 16 2019

NOTE:"FAIR" INDICATES FEW OR NO CLOUDS BELOW 12,000 FEET WITH NO 
SIGNIFICANT WEATHER AND/OR OBSTRUCTIONS TO VISIBILITY.

WAZ507-509-555>559-162000-
SEATTLE, TACOMA, EVERETT, AND VICINITY
  
CITY           SKY/WX    TMP DP  RH WIND       PRES   REMARKS
EVERETT        PTSUNNY   57  54  89 SW6       29.82F                  
BOEING FIELD   MOSUNNY   64  53  67 SW7       29.82S                  
RENTON         SUNNY     64  52  64 SW10      29.81S HAZE             
SEATAC AIRPORT MOSUNNY   63  52  67 SW10      29.82S                  
JBLM-MCCHORD   PTSUNNY   63  59  86 SW6       29.82S                  
PUYALLUP       CLOUDY    63  55  77 VRB5      29.83R                  
BREMERTON      SUNNY     62  53  72 SW9       29.82S                  
JBLM-FT LEWIS  PTSUNNY   62  59  92 SW5       29.81S                  
TACOMA NARROWS PTSUNNY   59  53  80 VRB3      29.83S                  
$$
 
WAZ001-503-506-510-514-515-162000-
NORTH INTERIOR
  
CITY           SKY/WX    TMP DP  RH WIND       PRES   REMARKS
BELLINGHAM     PTSUNNY   61  52  72 S9        29.81S                  
FRIDAY HARBOR  CLOUDY    59  51  75 E5        29.83S                  
EASTSOUND      CLOUDY    61  55  82 VRB6      29.81S                  
PORT ANGELES   PTSUNNY   54  53  97 VRB3      29.82S                  
EDIZ HOOK      CLOUDY    54  53  95 NW6       29.82S                  
PORT TOWNSEND  PTSUNNY   59  52  77 CALM      29.81S                  
NAS WHIDBEY    CLOUDY    58  51  78 NW5       29.85S                  
ARLINGTON      PTSUNNY   64  53  67 S7        29.81F                  
BURLINGTON     PTSUNNY   68  57  68 SW9       29.81F                  
$$
 
WAZ020-022-039-040-504-511-512-162000-
SOUTHWEST INTERIOR
  
CITY           SKY/WX    TMP DP  RH WIND       PRES   REMARKS
SHELTON        PTSUNNY   62  51  67 SW6       29.79F                  
OLYMPIA        CLOUDY    62  54  74 W6        29.82S                  
CHEHALIS       PTSUNNY   64  54  68 VRB3      29.82F                  
KELSO          PTSUNNY   65  54  67 SE7       29.83F                  
VANCOUVER      SUNNY     64  50  60 VRB6      29.83F                  
SCAPPOOSE, OR  SUNNY     62  52  69 SW6       29.82F                  
PORTLAND, OR   PTSUNNY   65  51  60 SW8       29.84S                  
$$
 
WAZ021-516-517-162000-
WASHINGTON COAST
  
CITY           SKY/WX    TMP DP  RH WIND       PRES   REMARKS
FORKS          MOSUNNY   63  54  72 S7        29.80S                  
HOQUIAM        MOSUNNY   61  56  83 SE3       29.82F                  
ASTORIA, OR    MOSUNNY   62  53  72 SW9       29.82R                  
$$
 
WAZ019-023-024-040-567>569-162000-
CASCADE MOUNTAINS AND COLUMBIA GORGE
  
CITY           SKY/WX    TMP DP  RH WIND       PRES   REMARKS
STAMPEDE PASS  NOT AVBL                                               
TROUTDALE, OR  CLOUDY    63  55  75 CALM      29.84F                  
HOOD RIVER, OR CLOUDY    61  50  67 W9        29.83S                  
THE DALLES, OR MOSUNNY   67  48  50 NW13      29.80F                  
$$

WAZ026-027-041>044-520-521-162000-
EAST SLOPES
  
CITY           SKY/WX    TMP DP  RH WIND       PRES   REMARKS
OMAK           CLOUDY    61  50  67 SW5       29.78S                  
WENATCHEE      CLOUDY    59  47  64 CALM      29.78S                  
ELLENSBURG     CLOUDY    63  45  51 NW9       29.79R                  
YAKIMA         CLOUDY    61  50  67 E5        29.80S                  
SUNNYSIDE ARPT CLOUDY    63  54  71 SE3       29.81S                  
YAKIMA TC      MOCLDY    60  50  68 S3        29.79R                  
$$

WAZ028-034-035-162000-
COLUMBIA BASIN
  
CITY           SKY/WX    TMP DP  RH WIND       PRES   REMARKS
EPHRATA        CLOUDY    61  51  70 S9        29.79R                  
MOSES LAKE     CLOUDY    61  51  70 S12       29.80R                  
PASCO          CLOUDY    61  56  83 SE9       29.82S                  
RICHLAND ARPT  CLOUDY    62  56  80 S6        29.81                   
HERMISTON, OR  CLOUDY    62  55  77 CALM      29.80F                  
$$

WAZ036>038-162000-
NORTHEAST WASHINGTON
  
CITY           SKY/WX    TMP DP  RH WIND       PRES   REMARKS
SPOKANE GEIGER LGT RAIN  52  48  86 SW7       29.82S                  
SPOKANE FELTS  CLOUDY    56  48  74 W6        29.82S                  
FAIRCHILD AFB  LGT RAIN  51  51 100 S7        29.81S                  
COEURDALENE,ID CLOUDY    59  46  62 W15       29.80R                  
DEER PARK      LGT RAIN  53  48  83 W3        29.82R                  
$$

WAZ029>033-162000-
SOUTHEAST WASHINGTON
  
CITY           SKY/WX    TMP DP  RH WIND       PRES   REMARKS
PULLMAN        CLOUDY    56  46  69 W10       29.84S                  
LEWISTON, ID   CLOUDY    63  46  54 NW13      29.80R                  
WALLA WALLA    CLOUDY    58  54  86 W6        29.82S                  
PENDLETON, OR  CLOUDY    57  51  80 CALM      29.81F                  
$$